Вернуться в каталог

PSLV-C51 PS4

АктивенSSO
NORAD 47700·ROCKET BODY·🇮🇳 India
Это название спутника еще не подтверждено официальными источниками.

Запущен Feb 28, 2021 с Satish Dhawan Space Centre

Loading…

Ближайшие Пролёты (ближайшие 24 часа)

TLE

СвежийSource: Space-Track

Эпоха: Sep 14, 2026, 16:19 UTC

1 47700U 21015B   26257.68031188  .00009770  00000-0  20387-3 0  9990
2 47700  97.1135 290.7615 0019581 306.4064  53.5380 15.45530717308231

Отслеживайте PSLV-C51 PS4 в реальном времени с AllMySat

Download on the App Store